Salida, CO

9:09 AM MST on January 17, 2018 (GMT -0700)
Salida

Weather History for KANK - December, 2012

Change the Weather History Date:

Sunday, December 30, 2012

  Actual Average (KGUC) Record (KGUC)
Temperature  
Mean Temperature 24 °F -  
Max Temperature 37 °F 23 °F 55 °F (2017)
Min Temperature 11 °F 0 °F -14 °F (2008)
Degree Days  
Heating Degree Days 41    
Moisture  
Dew Point 2 °F    
Average Humidity 35    
Maximum Humidity 52    
Minimum Humidity 28    
Precipitation  
Precipitation 0.00 in - - ()
Sea Level Pressure  
Sea Level Pressure 29.99 in    
Wind  
Wind Speed 10 mph (North)    
Max Wind Speed 18 mph    
Max Gust Speed 23 mph    
Visibility 10 miles    
Events      
Averages and records for this station are not official NWS values.
T = Trace of Precipitation, MM = Missing Value Source: NWS Daily Summary

Daily Weather History Graph

Daily Weather History Graph

Search for Another Location

Airport or City:

Trip Planner

Search our weather history database for the weather conditions in past years. The results will help you decide how hot, cold, wet, or windy it might be!

Date:

Astronomy

Dec. 30, 2012 Rise Set
Actual Time 7:21 AM MST 4:52 PM MST
Civil Twilight 6:51 AM MST 5:22 PM MST
Nautical Twilight 6:18 AM MST 5:55 PM MST
Astronomical Twilight 5:46 AM MST 6:27 PM MST
Moon 7:24 PM MST (12/30) 8:33 AM MST (12/30)
Length of Visible Light 10h 30m
Length of Day
9h 31m
Waning Gibbous, 95% of the Moon is Illuminated
Dec 30
Waning Gibbous
Jan 4
Last Quarter
Jan 11
New
Jan 18
First Quarter
Jan 26
Full

Hourly Weather History & Observations

Time (MST) Temp. Windchill Dew Point Humidity Pressure Visibility Wind Dir Wind Speed Gust Speed Precip Events Conditions
6:35 AM 13.5 °F -3.7 °F -4.9 °F 44% 30.07 in 10.0 mi NNW 18.4 mph - N/A   Clear
6:55 AM 14.0 °F -0.8 °F -5.1 °F 43% 30.07 in 10.0 mi NNW 13.8 mph - N/A   Clear
7:15 AM 12.9 °F -2.2 °F -5.3 °F 44% 30.07 in 10.0 mi NNW 13.8 mph - N/A   Clear
7:35 AM 11.7 °F -3.2 °F -5.4 °F 46% 30.07 in 10.0 mi NNW 12.7 mph - N/A   Clear
7:55 AM 11.3 °F -2.9 °F -5.1 °F 48% 30.07 in 10.0 mi NNW 11.5 mph 16.1 mph N/A   Clear
8:15 AM 11.7 °F 0.0 °F -5.1 °F 47% 30.09 in 10.0 mi NW 8.1 mph - N/A   Clear
8:35 AM 12.7 °F 2.4 °F -4.5 °F 46% 30.09 in 10.0 mi NNW 6.9 mph - N/A   Clear
8:55 AM 14.7 °F 2.9 °F -4.0 °F 43% 30.09 in 10.0 mi NW 9.2 mph - N/A   Clear
9:15 AM 16.3 °F 3.4 °F -3.1 °F 42% 30.08 in 10.0 mi NNW 11.5 mph - N/A   Mostly Cloudy
9:35 AM 20.3 °F 10.6 °F -1.1 °F 39% 30.08 in 10.0 mi North 8.1 mph - N/A   Overcast
9:55 AM 21.4 °F 11.1 °F -0.9 °F 38% 30.07 in 10.0 mi NNW 9.2 mph - N/A   Overcast
10:15 AM 23.0 °F 12.4 °F 0.3 °F 37% 30.07 in 10.0 mi North 10.4 mph - N/A   Mostly Cloudy
10:35 AM 23.7 °F 15.6 °F 0.9 °F 37% 30.07 in 10.0 mi NNW 6.9 mph - N/A   Mostly Cloudy
10:55 AM 27.0 °F 16.7 °F 1.4 °F 33% 30.06 in 10.0 mi NNW 11.5 mph - N/A   Overcast
11:15 AM 27.1 °F 16.9 °F 2.1 °F 34% 30.04 in 10.0 mi NNW 11.5 mph - N/A   Mostly Cloudy
11:35 AM 28.6 °F 20.7 °F 2.5 °F 33% 30.03 in 10.0 mi North 8.1 mph - N/A   Scattered Clouds
11:55 AM 30.0 °F 21.1 °F 3.2 °F 32% 30.00 in 10.0 mi North 10.4 mph - N/A   Scattered Clouds
12:15 PM 31.3 °F 22.7 °F 3.9 °F 31% 29.99 in 10.0 mi North 10.4 mph - N/A   Scattered Clouds
12:35 PM 32.0 °F 24.2 °F 4.1 °F 31% 29.98 in 10.0 mi North 9.2 mph - N/A   Scattered Clouds
12:55 PM 33.4 °F 26.6 °F 4.8 °F 30% 29.98 in 10.0 mi NNW 8.1 mph - N/A   Clear
1:15 PM 34.0 °F 28.0 °F 5.5 °F 30% 29.97 in 10.0 mi NNW 6.9 mph - N/A   Clear
1:35 PM 34.7 °F 31.8 °F 5.7 °F 30% 29.96 in 10.0 mi NW 3.5 mph - N/A   Clear
1:55 PM 35.6 °F - 5.9 °F 29% 29.95 in 10.0 mi Calm Calm - N/A   Scattered Clouds
2:15 PM 36.5 °F 32.7 °F 6.1 °F 28% 29.94 in 10.0 mi North 4.6 mph - N/A   Mostly Cloudy
2:35 PM 36.7 °F 32.0 °F 6.8 °F 29% 29.93 in 10.0 mi North 5.8 mph - N/A   Scattered Clouds
2:55 PM 37.2 °F - 7.5 °F 29% 29.93 in 10.0 mi Calm Calm - N/A   Scattered Clouds
3:15 PM 37.6 °F 32.3 °F 6.6 °F 28% 29.94 in 10.0 mi SSE 6.9 mph - N/A   Scattered Clouds
3:35 PM 35.1 °F 24.8 °F 7.3 °F 31% 29.94 in 10.0 mi South 17.3 mph 23.0 mph N/A   Mostly Cloudy
3:55 PM 34.0 °F 25.5 °F 6.8 °F 32% 29.94 in 10.0 mi South 11.5 mph 20.7 mph N/A   Scattered Clouds
4:15 PM 33.8 °F 25.8 °F 7.2 °F 33% 29.93 in 10.0 mi South 10.4 mph 18.4 mph N/A   Scattered Clouds
4:35 PM 33.4 °F 25.4 °F 7.5 °F 34% 29.94 in 10.0 mi SSW 10.4 mph 16.1 mph N/A   Overcast
4:55 PM 32.9 °F 26.7 °F 7.5 °F 35% 29.94 in 10.0 mi WSW 6.9 mph - N/A   Overcast
5:15 PM 32.4 °F 26.9 °F 7.7 °F 36% 29.93 in 10.0 mi WNW 5.8 mph - N/A   Mostly Cloudy
5:35 PM 32.0 °F 28.7 °F 7.7 °F 36% 29.92 in 10.0 mi NW 3.5 mph - N/A   Overcast
5:55 PM 31.3 °F 25.6 °F 8.2 °F 38% 29.92 in 10.0 mi SSW 5.8 mph - N/A   Overcast
6:15 PM 32.2 °F - 5.0 °F 32% 29.93 in 10.0 mi Calm Calm - N/A   Overcast
6:35 PM 31.5 °F 25.8 °F 3.4 °F 30% 29.93 in 10.0 mi ESE 5.8 mph 16.1 mph N/A   Overcast
6:55 PM 30.4 °F 26.9 °F 2.3 °F 30% 29.95 in 10.0 mi South 3.5 mph - N/A   Overcast
7:15 PM 29.8 °F 23.0 °F 0.5 °F 29% 29.95 in 10.0 mi East 6.9 mph - N/A   Overcast
7:35 PM 29.3 °F 24.3 °F -0.4 °F 28% 29.96 in 10.0 mi East 4.6 mph - N/A   Overcast
7:55 PM 28.8 °F 22.6 °F -0.9 °F 28% 29.96 in 10.0 mi East 5.8 mph - N/A   Overcast
8:15 PM 28.0 °F 21.7 °F -1.5 °F 28% 29.96 in 10.0 mi ENE 5.8 mph - N/A   Overcast
8:55 PM 26.6 °F 19.1 °F -1.3 °F 30% 29.96 in 10.0 mi East 6.9 mph - N/A   Overcast
9:15 PM 26.1 °F 17.6 °F -1.1 °F 31% 29.96 in 10.0 mi ESE 8.1 mph - N/A   Overcast
9:35 PM 25.7 °F 16.4 °F -1.3 °F 31% 29.96 in 10.0 mi East 9.2 mph - N/A   Overcast
9:55 PM 24.8 °F 13.4 °F -1.3 °F 32% 29.96 in 10.0 mi ESE 12.7 mph 18.4 mph N/A   Scattered Clouds
10:15 PM 24.8 °F 12.9 °F -1.5 °F 32% 29.96 in 10.0 mi ESE 13.8 mph 19.6 mph N/A   Clear
10:35 PM 24.1 °F 13.7 °F -1.5 °F 33% 29.97 in 10.0 mi East 10.4 mph - N/A   Scattered Clouds
10:55 PM 24.3 °F 13.3 °F -1.5 °F 33% 29.97 in 10.0 mi ESE 11.5 mph 16.1 mph N/A   Overcast
11:15 PM 23.9 °F 12.3 °F 2.7 °F 40% 29.97 in 10.0 mi SE 12.7 mph 20.7 mph N/A   Overcast
11:35 PM 23.4 °F 12.2 °F 5.9 °F 47% 29.97 in 10.0 mi SE 11.5 mph 18.4 mph N/A   Overcast
11:55 PM 23.0 °F 12.4 °F 7.7 °F 52% 29.98 in 10.0 mi SE 10.4 mph 18.4 mph N/A   Overcast